This is the latest recevied weather packets stored in our database for station/object K4MUW-4. If no packets are shown the sender has not sent any weather packets the latest 1 day(s).
| Time | Temp. | Humidity | Pressure | Rain* | Wind** | Luminosity | Snow |
|---|---|---|---|---|---|---|---|
| 1778020444 | 25° C | 30% | 1010 hPa | 0 mm | 1.79 m/s, 187° | - | - |
| 1778020144 | 25° C | 30% | 1010 hPa | 0 mm | 1.79 m/s, 186° | - | - |
| 1778019843 | 25° C | 30% | 1010 hPa | 0 mm | 1.34 m/s, 184° | - | - |
| 1778019543 | 25° C | 30% | 1010 hPa | 0 mm | 0 m/s | - | - |
| 1778019243 | 25° C | 30% | 1009 hPa | 0 mm | 1.79 m/s, 184° | - | - |
| 1778018942 | 25° C | 30% | 1009 hPa | 0 mm | 1.79 m/s, 175° | - | - |
| 1778018633 | 25° C | 29% | 1009 hPa | 0 mm | 1.34 m/s, 166° | - | - |
| 1778018332 | 24.44° C | 28% | 1009 hPa | 0 mm | 0 m/s | - | - |
| 1778018032 | 24.44° C | 27% | 1009 hPa | 0 mm | 1.34 m/s, 143° | - | - |
| 1778017731 | 24.44° C | 27% | 1009 hPa | 0 mm | 1.79 m/s, 205° | - | - |
| 1778017431 | 25° C | 26% | 1010 hPa | 0 mm | 1.34 m/s, 190° | - | - |
| 1778017130 | 25° C | 26% | 1010 hPa | 0 mm | 2.24 m/s, 190° | - | - |
| 1778016821 | 25° C | 26% | 1010 hPa | 0 mm | 1.79 m/s, 188° | - | - |
| 1778016520 | 25° C | 25% | 1010 hPa | 0 mm | 1.79 m/s, 198° | - | - |
| 1778016220 | 25° C | 25% | 1010 hPa | 0 mm | 1.34 m/s, 171° | - | - |
| 1778015919 | 25.56° C | 25% | 1010 hPa | 0 mm | 1.34 m/s, 168° | - | - |
| 1778015605 | 25.56° C | 24% | 1009 hPa | 0 mm | 1.34 m/s, 201° | - | - |
| 1778015304 | 25.56° C | 24% | 1009 hPa | 0 mm | 1.79 m/s, 178° | - | - |
| 1778014999 | 25.56° C | 24% | 1010 hPa | 0 mm | 1.34 m/s, 198° | - | - |
| 1778014699 | 25.56° C | 23% | 1010 hPa | 0 mm | 2.68 m/s, 166° | - | - |
| 1778014398 | 25.56° C | 23% | 1010 hPa | 0 mm | 1.34 m/s, 214° | - | - |
| 1778014098 | 25.56° C | 24% | 1010 hPa | 0 mm | 1.34 m/s, 167° | - | - |
| 1778013784 | 25.56° C | 23% | 1010 hPa | 0 mm | 1.79 m/s, 189° | - | - |
| 1778013529 | 25.56° C | 23% | 1010 hPa | 0 mm | 1.79 m/s, 146° | - | - |
| 1778013483 | 25.56° C | 23% | 1010 hPa | 0 mm | 1.79 m/s, 146° | - | - |
* Rain latest hour (hover to see other rain measurements)
** Current wind speed in m/s (hover to see current wind gust speed)